Location: Caixon
(43.4106°N, 0.0273°E)
Time: 02:39:09
(UTC+00:00)

COSMO-SKYMED 1 - Pass Details

Date: 16 October 2021
Orbit: 621 x 623 km, 97.9° (Epoch: 30 November)

Event Time Altitude Azimuth Distance (km) Brightness Sun altitude
Rises 05:16:57 0° 170° (S) 2,889 6.2 -11.3°
Reaches altitude 10° 05:19:08 10° 172° (S) 1,988 5.3 -10.9°
Maximum altitude 05:23:28 75° 258° (WSW) 649 2.5 -10.1°
Drops below altitude 10° 05:27:49 10° 344° (NNW) 2,004 5.0 -9.3°
Sets 05:30:02 0° 346° (NNW) 2,915 5.8 -8.9°
